Skip Page Navigation
NASA JPL Caltech
NASA Logo - Jet Propulsion Laboratory + View the NASA Portal
+ Near-Earth Object (NEO) Program
Search JPL
JPL Home Earth Solar System Stars & Galaxies Technology
JPL Solar System Dynamics
BODIES ORBITS EPHEMERIDES TOOLS PHYSICAL DATA DISCOVERY FAQ SITE MAP
JPL Small-Body Database Browser
Search: [ help ]  
8362 (1990 QM1)
Classification: Main-belt Asteroid          SPK-ID: 2008362
Ephemeris | Orbit Diagram | Orbital Elements | Physical Parameters | Close-Approach Data ]

[ show orbit diagram ]
Orbital Elements at Epoch 2457000.5 (2014-Dec-09.0) TDB
Reference: JPL 11 (heliocentric ecliptic J2000)
 Element Value Uncertainty (1-sigma)   Units 
e .1864089480848489 7.0907e-08  
a 3.173097413583898 3.2783e-08 AU
q 2.581603662546968 2.2733e-07 AU
i 2.530657911113141 7.7979e-06 deg
node 147.0612736915972 0.00016717 deg
peri 249.029384148211 0.00016838 deg
M 64.21410346121004 1.8724e-05 deg
tp 2456632.242621570539
(2013-Dec-05.74262157)
0.00010646 JED
period 2064.54110684095
5.65
3.1995e-05
8.76e-08
d
yr
n .1743728903276005 2.7023e-09 deg/d
Q 3.764591164620827 3.8894e-08 AU
  Orbit Determination Parameters
   # obs. used (total)      872  
   data-arc span      12771 days (34.97 yr)  
   first obs. used      1979-11-16  
   last obs. used      2014-11-03  
   planetary ephem.      DE431  
   SB-pert. ephem.      SB431-BIG16  
   condition code      0  
   fit RMS      .56316  
   data source      ORB  
   producer      Otto Matic  
   solution date      2014-Nov-10 13:07:01  

Additional Information
 Earth MOID = 1.58967 AU 
 T_jup = 3.173 
[ show covariance matrix ]

Ephemeris | Orbit Diagram | Orbital Elements | Physical Parameters | Close-Approach Data ]

Physical Parameter Table
Parameter Symbol Value Units Sigma Reference Notes
absolute magnitude H 13.3 mag n/a MPO266002  

[ show close-approach data ]
Alternate Designations
 1990 QM1 = 1979 WU = 1996 TU10 
Ephemeris | Orbit Diagram | Orbital Elements | Physical Parameters | Close-Approach Data ]
ABOUT SSD CREDITS/AWARDS PRIVACY/COPYRIGHT GLOSSARY LINKS
FirstGov 2014-Dec-18 04:01 UT
(server date/time)  
NASA Home Page
Site Manager:   Donald K. Yeomans
Webmaster  Alan B. Chamberlin